Le nostre stazioni meteo in Italia

Pubblicità
Il mio iltempo24.it
Aosta, Italia (16054): Temperatura & dewpoint: 09.09.2019 21:00:00 - 15.09.2019 21:00:00 (CEST)Aosta, Italia (16054): velocità del vento: 09.09.2019 21:00:00 - 15.09.2019 21:00:00 (CEST)Aosta, Italia (16054): direzione del vento: 09.09.2019 21:00:00 - 15.09.2019 21:00:00 (CEST)Aosta, Italia (16054): visibility: 09.09.2019 21:00:00 - 15.09.2019 21:00:00 (CEST)
Data & Tempo tt [°C] td [°C] ff [km/h] ff [kn] dd vv [km]
15.09.2019 21:00:00 - - - - - -
15.09.2019 20:00:00 23,5 15,2 18 10 ESE 10
15.09.2019 19:00:00 24,7 15,3 29 16 E 6
15.09.2019 18:00:00 25,9 15,2 31 17 E 10
15.09.2019 17:00:00 27,0 15,3 29 16 E 10
15.09.2019 16:00:00 28,2 15,1 24 13 E 10
15.09.2019 15:00:00 28,7 14,5 15 8 E 10
15.09.2019 14:00:00 27,4 15,7 15 8 SE 10
15.09.2019 13:00:00 25,7 15,6 9 5 - 10
15.09.2019 12:00:00 23,6 14,5 5 3 - 10
15.09.2019 11:00:00 21,1 14,6 4 2 - 10
15.09.2019 10:00:00 19,3 15,1 5 3 E 10
15.09.2019 09:00:00 16,2 14,5 4 2 - 10
15.09.2019 08:00:00 13,8 12,7 5 3 OSO 10
15.09.2019 07:00:00 13,7 12,2 2 1 SE 10
15.09.2019 06:00:00 14,0 12,4 0 0 N -
15.09.2019 05:00:00 13,4 11,8 2 1 SO -
15.09.2019 04:00:00 13,7 11,2 0 0 N -
15.09.2019 03:00:00 14,7 12,7 4 2 OSO -
15.09.2019 02:00:00 15,5 12,8 0 0 N -
15.09.2019 01:00:00 16,3 13,0 0 0 N -
15.09.2019 00:00:00 17,6 14,0 4 2 SSO -
14.09.2019 23:00:00 17,9 13,7 2 1 SO -
14.09.2019 22:00:00 19,3 14,5 2 1 SSO -
14.09.2019 21:00:00 22,0 14,8 9 5 ENE -
14.09.2019 20:00:00 23,5 14,7 16 9 E 10
14.09.2019 19:00:00 25,3 14,7 21 11 E 10
14.09.2019 18:00:00 26,6 14,3 22 12 E 10
14.09.2019 17:00:00 27,4 13,7 29 16 E 10
14.09.2019 16:00:00 27,8 14,0 29 16 E 10
14.09.2019 15:00:00 28,0 13,8 18 10 E 10
14.09.2019 14:00:00 26,7 13,7 9 5 SE 10
14.09.2019 13:00:00 25,2 12,4 4 2 SO -
14.09.2019 12:00:00 23,8 12,4 8 4 ENE 10
14.09.2019 11:00:00 21,7 13,0 4 2 - 10
14.09.2019 10:00:00 19,2 13,7 2 1 - 10
14.09.2019 09:00:00 15,9 14,9 2 1 ESE 10
14.09.2019 08:00:00 11,5 10,1 0 0 N 10
14.09.2019 07:00:00 11,4 10,0 2 1 - 10
14.09.2019 06:00:00 11,2 9,4 0 0 N -
14.09.2019 05:00:00 12,2 9,9 0 0 N -
14.09.2019 04:00:00 12,5 10,2 5 3 OSO -
14.09.2019 03:00:00 13,2 10,3 0 0 N -
14.09.2019 02:00:00 14,4 11,5 0 0 N -
14.09.2019 01:00:00 15,3 12,0 0 0 N -
14.09.2019 00:00:00 16,4 12,7 2 1 SO -
13.09.2019 23:00:00 17,6 12,8 4 2 OSO -
13.09.2019 22:00:00 17,8 13,2 4 2 OSO -
13.09.2019 21:00:00 20,8 13,7 0 0 N -
13.09.2019 20:00:00 23,5 14,4 16 9 ESE 10
13.09.2019 19:00:00 25,0 14,4 29 16 E 10
13.09.2019 18:00:00 26,4 13,8 28 15 E 10
13.09.2019 17:00:00 27,0 13,6 29 16 E 10
13.09.2019 16:00:00 27,8 13,7 29 16 E 10
13.09.2019 15:00:00 27,6 12,8 28 15 E 10
13.09.2019 14:00:00 27,2 11,2 21 11 E 10
13.09.2019 13:00:00 25,7 11,1 11 6 E 10
13.09.2019 12:00:00 23,7 9,6 8 4 E 10
13.09.2019 11:00:00 21,2 10,9 4 2 - 10
13.09.2019 10:00:00 18,7 12,2 4 2 SE -
13.09.2019 09:00:00 14,3 12,5 0 0 N 10
13.09.2019 08:00:00 9,6 7,7 0 0 N 10
13.09.2019 07:00:00 9,9 7,6 0 0 N 10
13.09.2019 06:00:00 9,9 8,0 4 2 OSO -
13.09.2019 05:00:00 10,3 7,9 0 0 N -
13.09.2019 04:00:00 11,5 8,9 2 1 O -
13.09.2019 03:00:00 11,7 9,1 2 1 OSO -
13.09.2019 02:00:00 12,1 9,1 0 0 N -
13.09.2019 01:00:00 13,7 9,3 2 1 SE -
13.09.2019 00:00:00 15,0 9,7 0 0 N -
12.09.2019 23:00:00 16,2 10,5 4 2 SSO -
12.09.2019 22:00:00 16,8 9,9 4 2 SO -
12.09.2019 21:00:00 19,2 10,2 2 1 O -
12.09.2019 20:00:00 23,5 11,2 11 6 ESE 10
12.09.2019 19:00:00 25,7 10,7 28 15 E 10
12.09.2019 18:00:00 27,1 9,4 28 15 E 10
12.09.2019 17:00:00 27,8 9,6 24 13 E 10
12.09.2019 16:00:00 28,4 10,1 28 15 E 10
12.09.2019 15:00:00 27,9 8,7 18 10 E 10
12.09.2019 14:00:00 26,7 8,2 13 7 ESE 10
12.09.2019 13:00:00 24,9 6,6 8 4 E 10
12.09.2019 12:00:00 23,2 9,2 5 3 SE 10
12.09.2019 11:00:00 20,2 8,1 2 1 - 10
12.09.2019 10:00:00 17,2 9,1 2 1 NNE -
12.09.2019 09:00:00 13,9 11,2 2 1 - 10
12.09.2019 08:00:00 9,0 6,8 0 0 N 10
12.09.2019 07:00:00 9,5 6,9 0 0 N 10
12.09.2019 06:00:00 8,6 6,0 0 0 N -
12.09.2019 05:00:00 9,1 6,0 4 2 SO -
12.09.2019 04:00:00 11,0 8,4 4 2 SO -
12.09.2019 03:00:00 11,2 7,5 2 1 N -
12.09.2019 02:00:00 11,9 8,1 0 0 N -
12.09.2019 01:00:00 12,8 9,2 9 5 SO -
12.09.2019 00:00:00 12,9 8,9 4 2 O -
11.09.2019 23:00:00 13,9 9,3 4 2 S -
11.09.2019 22:00:00 15,3 10,2 4 2 OSO -
11.09.2019 21:00:00 16,7 10,3 4 2 SSO -
11.09.2019 20:00:00 21,2 10,3 8 4 E 10
11.09.2019 19:00:00 22,9 10,9 16 9 E 10
11.09.2019 18:00:00 23,2 10,6 22 12 E 10
11.09.2019 17:00:00 23,4 10,4 24 13 E 10
11.09.2019 16:00:00 26,4 8,8 15 8 E 10
11.09.2019 15:00:00 25,0 8,9 8 4 ESE 10
11.09.2019 14:00:00 24,9 9,2 9 5 E 10
11.09.2019 13:00:00 23,3 8,9 5 3 - 10
11.09.2019 12:00:00 21,0 8,9 8 4 E 10
11.09.2019 11:00:00 19,1 9,8 4 2 - 10
11.09.2019 10:00:00 17,6 11,4 5 3 E 10
11.09.2019 09:00:00 15,0 10,2 5 3 N 10
11.09.2019 08:00:00 11,3 8,5 0 0 N 10
11.09.2019 07:00:00 11,2 8,4 5 3 OSO 10
11.09.2019 06:00:00 11,9 8,3 2 1 NE -
11.09.2019 05:00:00 13,7 10,1 2 1 SO -
11.09.2019 04:00:00 12,9 10,1 2 1 SO -
11.09.2019 03:00:00 13,2 10,0 0 0 N -
11.09.2019 02:00:00 13,7 10,1 2 1 N -
11.09.2019 01:00:00 13,7 10,1 0 0 N -
11.09.2019 00:00:00 13,9 10,3 2 1 S -
10.09.2019 23:00:00 13,9 9,7 0 0 N -
10.09.2019 22:00:00 14,2 9,4 2 1 OSO -
10.09.2019 21:00:00 14,6 9,8 2 1 SE -
10.09.2019 20:00:00 16,5 8,9 5 3 SSO 10
10.09.2019 19:00:00 17,4 8,7 16 9 E 10
10.09.2019 18:00:00 18,0 9,0 16 9 E 10
10.09.2019 17:00:00 18,2 8,9 28 15 E 10
10.09.2019 16:00:00 19,0 8,6 5 3 - 10
10.09.2019 15:00:00 17,9 8,4 8 4 OSO 10
10.09.2019 14:00:00 17,6 8,1 8 4 OSO 10
10.09.2019 13:00:00 17,7 8,2 5 3 - 10
10.09.2019 12:00:00 16,8 7,1 0 0 N 10
10.09.2019 11:00:00 16,0 7,2 0 0 N 10
10.09.2019 10:00:00 14,5 9,3 4 2 - 10
10.09.2019 09:00:00 12,8 9,0 2 1 - 10
10.09.2019 08:00:00 10,4 7,8 2 1 - 10
10.09.2019 07:00:00 9,8 6,3 4 2 - 10
10.09.2019 06:00:00 10,8 7,4 4 2 SSO -
10.09.2019 05:00:00 10,0 6,5 2 1 N -
10.09.2019 04:00:00 10,4 6,1 2 1 SSE -
10.09.2019 03:00:00 11,9 7,4 0 0 N -
10.09.2019 02:00:00 11,8 6,7 4 2 SO -
10.09.2019 01:00:00 13,3 6,6 2 1 SE -
10.09.2019 00:00:00 13,1 5,9 4 2 OSO -
09.09.2019 23:00:00 14,2 5,5 4 2 O -
09.09.2019 22:00:00 12,9 3,7 5 3 SSO -
09.09.2019 21:00:00 17,7 3,5 4 2 NNE -

tt = Temperatura
td = dewpoint
ff = velocità del vento
dd = direzione del vento
vv = visibility

Stazioni seguenti

WeatherPro
AMSI
MeteoEarth